Bellingham, WA

1:22 AM PDT on April 23, 2018 (GMT -0700)
Bellingham International

Weather History for KBLI - April, 2014

Change the Weather History Date:

Tuesday, April 22, 2014

  Actual Average Record
Temperature  
Mean Temperature 51 °F 49 °F  
Max Temperature 55 °F 58 °F 71 °F (1977)
Min Temperature 46 °F 41 °F 29 °F (2008)
Degree Days  
Heating Degree Days 14 16  
Month to date heating degree days 321 377  
Cooling Degree Days 0 0  
Month to date cooling degree days 0 0  
Year to date cooling degree days 0 0  
Moisture  
Dew Point 40 °F    
Average Humidity 70    
Maximum Humidity 93    
Minimum Humidity 46    
Precipitation  
Precipitation 0.16 in 0.08 in 0.49 in (1955)
Month to date precipitation 1.78 2.06  
Year to date precipitation 12.75 12.97  
Sea Level Pressure  
Sea Level Pressure 29.84 in    
Wind  
Wind Speed 9 mph (SSE)    
Max Wind Speed 18 mph    
Max Gust Speed 26 mph    
Visibility 10 miles    
Events Rain    
T = Trace of Precipitation, MM = Missing Value Source: NWS Daily Summary

Daily Weather History Graph

Daily Weather History Graph

Search for Another Location

Airport or City:

Astronomy

Apr. 22, 2014 Rise Set
Actual Time 6:05 AM PDT 8:12 PM PDT
Civil Twilight 5:31 AM PDT 8:46 PM PDT
Nautical Twilight 4:49 AM PDT 9:29 PM PDT
Astronomical Twilight 4:01 AM PDT 10:17 PM PDT
Moon 2:33 AM PDT (4/22) 12:46 PM PDT (4/22)
Length of Visible Light 15h 15m
Length of Day
14h 06m
Last Quarter, 45% of the Moon is Illuminated
Apr 22
Last Quarter
Apr 28
New
May 6
First Quarter
May 14
Full
May 21
Last Quarter

Hourly Weather History & Observations

Time (PDT) Temp. Windchill Dew Point Humidity Pressure Visibility Wind Dir Wind Speed Gust Speed Precip Events Conditions
12:53 AM 46.9 °F - 45.0 °F 93% 29.85 in 10.0 mi Calm Calm - 0.04 in Rain Light Rain
1:53 AM 46.9 °F - 45.0 °F 93% 29.83 in 9.0 mi Calm Calm - 0.04 in Rain Light Rain
2:06 AM 46.4 °F - 44.6 °F 93% 29.81 in 8.0 mi Calm Calm - 0.01 in Rain Light Rain
2:15 AM 46.4 °F - 44.6 °F 93% 29.81 in 7.0 mi Calm Calm - 0.02 in Rain Light Rain
2:22 AM 46.4 °F - 44.6 °F 93% 29.81 in 8.0 mi Calm Calm - 0.02 in Rain Light Rain
2:35 AM 46.4 °F - 44.6 °F 93% 29.81 in 8.0 mi Calm Calm - 0.04 in Rain Light Rain
2:53 AM 46.9 °F - 44.1 °F 90% 29.83 in 9.0 mi South 3.5 mph - 0.05 in Rain Light Rain
3:53 AM 46.0 °F 44.8 °F 44.1 °F 93% 29.83 in 10.0 mi SSE 3.5 mph - 0.03 in Rain Light Rain
4:11 AM 46.4 °F - 44.6 °F 93% 29.81 in 10.0 mi Calm Calm - 0.00 in Rain Light Rain
4:53 AM 46.9 °F - 43.0 °F 86% 29.83 in 10.0 mi South 3.5 mph - 0.02 in Rain Light Rain
5:53 AM 46.0 °F 44.8 °F 43.0 °F 89% 29.83 in 10.0 mi South 3.5 mph - 0.02 in   Overcast
6:12 AM 46.4 °F 45.2 °F 42.8 °F 87% 29.81 in 10.0 mi South 3.5 mph - N/A   Overcast
6:53 AM 46.0 °F 42.5 °F 42.1 °F 86% 29.84 in 10.0 mi SSE 6.9 mph - N/A   Overcast
7:30 AM 46.4 °F 45.2 °F 42.8 °F 87% 29.82 in 10.0 mi SSE 3.5 mph - N/A   Overcast
7:48 AM 46.4 °F 45.2 °F 42.8 °F 87% 29.83 in 10.0 mi South 3.5 mph - N/A   Overcast
7:53 AM 46.0 °F 44.8 °F 42.1 °F 86% 29.85 in 10.0 mi South 3.5 mph - N/A   Overcast
8:53 AM 46.9 °F - 39.9 °F 77% 29.86 in 10.0 mi South 3.5 mph - N/A   Overcast
9:53 AM 48.9 °F - 37.9 °F 66% 29.86 in 10.0 mi SSE 10.4 mph - N/A   Mostly Cloudy
10:53 AM 50.0 °F - 36.0 °F 59% 29.87 in 10.0 mi South 11.5 mph - N/A   Mostly Cloudy
11:53 AM 52.0 °F - 39.0 °F 61% 29.87 in 10.0 mi SSE 12.7 mph 20.7 mph N/A   Mostly Cloudy
12:53 PM 52.0 °F - 37.9 °F 59% 29.88 in 10.0 mi South 18.4 mph 24.2 mph N/A   Scattered Clouds
1:53 PM 52.0 °F - 37.9 °F 59% 29.88 in 10.0 mi South 16.1 mph 23.0 mph N/A   Scattered Clouds
2:53 PM 53.1 °F - 36.0 °F 52% 29.88 in 10.0 mi SSE 11.5 mph 24.2 mph N/A   Clear
3:53 PM 54.0 °F - 35.1 °F 49% 29.87 in 10.0 mi SSE 16.1 mph 20.7 mph N/A   Clear
4:53 PM 54.0 °F - 34.0 °F 47% 29.87 in 10.0 mi South 10.4 mph 16.1 mph N/A   Partly Cloudy
5:53 PM 54.0 °F - 35.1 °F 49% 29.86 in 10.0 mi SSE 6.9 mph - N/A   Scattered Clouds
6:53 PM 54.0 °F - 34.0 °F 47% 29.85 in 10.0 mi South 4.6 mph - N/A   Clear
7:53 PM 52.0 °F - 35.1 °F 53% 29.85 in 10.0 mi SSE 6.9 mph - N/A   Overcast
8:53 PM 52.0 °F - 36.0 °F 54% 29.85 in 10.0 mi SE 13.8 mph 18.4 mph N/A   Overcast
9:53 PM 50.0 °F - 37.9 °F 63% 29.86 in 10.0 mi SSE 12.7 mph 26.5 mph N/A   Overcast
10:53 PM 48.0 °F - 39.0 °F 71% 29.86 in 10.0 mi SSE 11.5 mph 18.4 mph 0.00 in   Overcast
11:22 PM 46.4 °F 39.5 °F 37.4 °F 71% 29.83 in 10.0 mi SE 17.3 mph - 0.00 in   Overcast
11:53 PM 46.9 °F - 39.0 °F 74% 29.85 in 10.0 mi SE 10.4 mph 19.6 mph 0.00 in   Overcast